Location: Krakow
(50.0830°N, 19.9170°E)
Time: 00:29:54
(UTC+01:00)

S-56A Canister/Altair - Pass Details

Date: 29 November 2023
Orbit: 640 x 2488 km, 38.9° (Epoch: 23 February)

Event Time Altitude Azimuth Distance (km) Brightness Sun altitude
Rises 17:53:03 0° 261° (W) 3,448 12.5 -20.2°
Reaches altitude 10° 17:55:54 10° 245° (WSW) 2,725 11.4 -20.6°
Maximum altitude 18:00:40 21° 198° (SSW) 2,385 10.3 -21.4°
Drops below altitude 10° 18:06:50 10° 154° (SSE) 3,634 10.8 -22.4°
Sets 18:11:26 0° 141° (SE) 4,988 11.4 -23.1°
